Theta_e
338 339 340 336 336 337 342 348 352 354 355 354 352 350 346 347 348 352 352 351 351 349 350 352 352 350 348 348 349 349 347 344 345 342 343 342 343 343 343 343 342 343 342 341 343 342 344 345 345 344 345 344 344 344 348 352 352 348 346 347 346 345 347
337 337 340 339 336 340 345 351 355 354 353 353 350 349 347 348 350 351 351 352 350 350 352 352 351 349 348 348 349 347 345 343 343 343 343 343 344 343 342 342 342 342 344 344 344 344 345 344 344 344 344 344 343 344 345 346 347 348 344 343 343 343 344
339 337 341 342 336 333 345 351 353 352 352 351 349 347 346 350 351 352 351 349 349 352 353 351 350 348 348 348 347 346 346 344 342 342 342 341 341 340 341 341 341 341 342 344 344 343 344 344 345 345 344 343 342 343 345 345 345 344 345 345 344 342 343
338 337 341 345 348 343 344 347 351 349 350 350 349 348 349 352 353 353 351 349 348 350 351 350 349 348 348 348 347 347 345 345 345 343 342 341 341 343 341 340 342 343 343 342 342 342 343 344 344 343 344 343 343 344 345 344 345 346 346 346 345 344 343
341 342 341 343 346 346 342 350 350 347 347 348 349 350 351 354 354 351 349 350 348 349 351 350 348 348 349 349 347 347 346 345 345 345 344 343 343 342 341 340 340 341 341 342 343 342 343 343 342 342 342 342 341 342 340 341 342 343 342 344 343 342 340
339 342 342 342 345 341 340 347 348 345 344 343 346 348 350 352 349 345 346 349 349 349 350 349 348 349 348 350 348 346 346 345 345 344 343 343 343 341 340 340 340 341 340 341 341 340 340 341 341 341 341 340 339 339 339 339 340 339 341 342 343 343 342
340 343 343 344 346 346 347 348 346 344 342 341 345 348 349 347 344 341 342 345 345 346 346 346 348 348 349 349 348 348 346 345 344 344 344 343 343 342 341 341 341 341 341 342 341 341 339 339 340 341 341 341 342 341 342 342 342 343 344 343 342 342 342
341 343 346 346 347 344 345 346 344 343 341 341 344 345 345 343 340 338 341 342 341 340 341 341 346 347 349 348 347 346 346 346 344 343 344 343 342 341 340 340 339 341 342 340 341 340 338 339 339 340 341 341 343 343 343 343 344 341 341 340 341 342 340
343 347 347 347 347 342 340 346 344 342 342 343 346 347 344 341 337 337 339 340 340 339 340 340 342 347 350 348 347 346 345 343 342 342 342 341 340 337 337 336 337 338 338 338 338 340 339 338 339 340 341 342 343 343 343 343 344 341 340 339 341 341 340
345 348 349 346 344 340 343 346 345 344 342 345 347 347 342 339 339 337 337 336 338 338 339 339 337 341 348 348 346 345 343 342 342 341 339 336 338 336 335 334 334 337 336 337 335 335 339 339 340 339 340 340 342 343 345 344 345 345 341 339 340 341 341
346 350 350 348 346 346 348 346 343 345 345 346 347 346 343 340 338 337 338 337 335 336 336 337 338 336 342 346 344 343 342 341 340 340 340 338 334 334 333 332 332 333 333 334 334 335 336 337 338 338 338 339 342 342 342 343 342 340 339 341 342 342 340
348 350 350 350 350 348 347 347 345 345 345 346 347 344 343 343 339 339 338 337 336 334 335 335 337 337 338 338 339 340 340 341 340 338 338 336 335 334 335 335 335 334 333 333 331 333 331 333 334 335 336 338 342 345 345 345 344 346 345 344 341 340 340
348 350 351 350 350 348 350 349 344 345 346 346 346 345 344 343 339 338 340 338 334 335 335 338 338 340 339 337 334 337 337 338 339 340 337 338 337 338 336 335 334 334 333 333 333 332 331 332 334 335 335 337 340 340 340 343 342 343 345 344 344 342 341
349 350 353 353 351 349 348 349 347 347 348 349 347 347 345 344 340 340 340 338 336 335 335 336 341 341 339 338 337 337 336 338 338 339 338 338 339 339 338 337 337 338 337 336 334 331 331 331 331 332 334 335 336 337 339 339 340 342 342 342 342 341 339
345 347 351 351 351 350 349 348 348 350 350 349 348 346 345 342 341 342 343 339 340 336 337 341 343 342 340 340 339 339 339 339 340 339 339 338 339 338 338 338 338 337 337 336 334 333 331 332 332 334 334 335 336 338 339 340 340 341 342 341 342 338 334
343 345 348 349 350 350 350 350 351 351 351 348 347 345 343 341 342 341 340 337 337 340 339 343 344 344 342 339 339 340 341 340 340 339 339 339 338 338 338 337 337 336 335 334 333 334 334 335 335 333 333 333 335 338 338 340 340 337 333 334 340 337 335
342 343 345 349 350 350 351 352 353 352 349 347 346 345 342 342 343 344 336 335 336 340 341 342 345 344 343 341 340 340 341 341 340 340 339 339 339 338 338 338 337 337 335 334 334 335 336 335 333 332 333 333 334 336 337 337 338 330 329 329 331 336 336
336 342 343 347 349 351 351 352 353 351 349 346 347 345 343 344 340 339 338 335 336 338 340 342 344 344 344 342 341 340 340 339 339 339 338 339 339 339 339 338 337 336 335 334 333 334 334 333 333 334 334 335 336 336 336 336 335 323 326 329 328 331 336
334 339 343 346 348 349 350 351 352 352 349 347 345 344 345 344 339 341 340 339 341 341 341 341 342 345 344 342 341 340 340 340 339 338 338 339 339 339 338 338 336 335 334 332 333 334 334 334 333 333 335 335 335 335 335 335 329 322 325 327 326 327 331
336 339 343 344 347 348 351 352 351 351 350 347 347 345 345 345 343 345 343 340 342 340 342 344 344 344 343 342 341 340 340 339 339 338 339 339 339 339 338 337 336 334 333 332 333 334 333 333 332 332 333 333 333 333 333 334 330 322 323 323 324 325 328
339 340 343 345 346 347 350 351 352 352 349 347 345 345 343 343 345 345 343 342 341 341 342 343 344 343 343 341 341 340 339 338 338 338 339 339 339 339 338 337 336 334 333 332 331 332 334 332 331 332 332 331 330 331 331 333 323 320 321 320 320 321 325
339 340 343 345 347 349 350 350 351 350 349 348 345 342 342 343 344 342 342 343 341 341 344 344 343 342 341 339 340 339 339 338 339 339 339 339 339 338 337 337 336 334 334 333 332 334 333 332 332 330 330 331 331 331 331 331 320 319 319 318 318 321 333
337 340 343 346 347 348 351 352 352 351 350 347 344 343 341 342 342 342 341 341 338 341 342 343 343 342 340 339 338 339 339 339 338 339 339 339 338 339 338 336 335 334 335 333 332 332 331 331 330 332 330 332 332 331 332 333 326 316 316 316 317 320 336
338 342 346 346 349 349 352 352 352 352 348 346 345 344 343 342 343 344 342 341 339 338 340 342 341 341 340 338 338 339 339 340 339 339 338 339 337 337 337 335 335 334 334 331 330 329 331 331 331 333 333 331 331 330 330 328 325 313 311 311 314 323 335
337 342 345 346 347 349 350 352 352 351 350 348 345 345 346 345 343 342 342 340 337 337 339 341 341 340 339 339 339 339 339 339 339 339 337 337 337 337 335 335 335 334 334 332 333 333 333 332 331 331 332 329 330 331 327 329 327 310 310 310 314 322 337
341 343 346 347 350 353 354 354 353 350 348 346 348 350 349 346 343 341 340 340 338 336 337 340 341 341 341 341 340 339 340 340 340 340 338 337 337 337 336 336 334 333 333 332 331 330 331 330 330 329 330 332 330 329 329 331 331 330 309 311 312 315 330
343 344 345 344 347 351 353 352 350 348 347 349 351 350 349 346 346 344 344 345 344 340 338 340 343 343 342 342 339 339 340 341 341 339 338 337 336 336 336 335 334 335 334 330 330 330 331 330 330 329 330 331 332 332 333 331 333 330 312 309 312 312 317
342 343 342 345 349 350 351 347 350 349 347 351 352 351 349 350 349 348 347 345 344 345 343 343 343 343 343 343 341 339 339 340 342 340 338 338 338 337 336 336 336 335 333 330 332 332 331 332 331 330 330 331 332 333 334 335 335 335 315 309 307 307 309
339 337 339 346 346 347 342 343 343 340 340 341 343 347 350 350 349 349 347 345 347 347 346 344 343 343 343 343 341 342 340 341 340 339 338 338 338 336 336 338 338 337 337 335 333 331 330 331 331 330 329 331 332 331 331 334 338 326 331 309 309 305 307
339 339 342 337 336 339 336 341 340 337 337 334 339 343 348 349 348 348 347 346 349 348 348 346 344 344 344 344 344 343 341 340 339 339 339 339 338 337 337 337 338 338 337 336 332 331 330 329 330 332 329 327 326 330 329 334 338 327 325 326 313 309 306
336 337 335 332 333 337 337 338 341 340 341 345 348 350 351 350 346 346 345 347 348 347 346 346 344 343 344 344 344 343 341 340 339 338 338 338 338 337 336 337 338 336 337 335 334 332 330 330 331 329 330 327 326 327 329 330 333 334 329 323 322 316 312
338 337 333 334 339 340 338 336 338 340 342 347 349 348 347 346 345 343 344 346 346 346 345 345 344 343 344 345 342 341 341 339 337 338 338 338 338 336 337 334 335 335 332 332 333 329 330 329 331 329 327 326 329 325 328 327 327 333 331 327 325 320 317
340 338 337 339 343 341 338 337 334 335 336 338 343 345 343 346 346 346 346 345 344 344 346 346 345 344 344 342 339 341 340 338 336 335 338 339 337 333 333 334 335 334 333 332 330 327 327 329 327 326 324 331 325 325 326 327 327 329 326 324 323 323 322
340 341 343 344 342 341 340 338 337 337 339 340 342 343 341 338 337 337 340 339 337 337 343 344 344 343 343 342 341 339 338 337 336 336 335 335 332 331 334 336 336 334 330 329 328 326 327 328 326 326 327 327 325 326 327 324 325 325 319 316 316 315 317
342 343 342 341 341 342 343 340 339 339 336 340 340 339 338 337 336 332 331 331 336 339 337 340 341 342 341 340 339 336 336 335 337 338 334 332 332 334 332 330 336 335 331 327 328 329 331 328 325 325 326 325 325 325 323 324 323 318 303 307 300 303 309
342 341 341 341 341 341 339 338 337 336 336 339 338 337 338 337 336 337 332 331 331 335 336 339 340 339 337 333 332 333 333 334 333 333 332 333 332 330 321 306 298 308 332 322 306 301 301 308 323 319 324 323 327 325 321 319 316 300 296 295 294 294 294
337 335 334 335 336 336 337 336 336 337 335 338 337 336 335 335 334 336 335 335 337 336 337 338 336 333 331 330 330 329 331 330 335 329 333 330 330 330 328 323 316 297 297 304 304 299 295 294 295 298 301 315 323 314 302 304 300 296 295 294 294 293 293
334 333 333 333 335 335 336 336 336 337 336 338 335 335 335 333 334 336 333 334 336 337 337 337 335 333 331 329 329 335 332 331 329 331 330 329 330 332 331 326 322 315 298 295 298 298 295 294 294 294 295 296 302 310 318 308 300 296 294 294 294 294 293
Wind_Speed
18 18 18 17 15 15 16 16 16 16 15 14 14 14 14 12 11 10 9 10 10 9 9 8 8 7 6 4 4 4 3 2 2 3 3 3 3 4 4 5 6 6 6 6 6 6 6 7 7 7 6 6 7 6 6 5 5 5 5 6 7 7 7
17 17 17 18 18 17 18 18 17 16 15 14 14 15 13 13 11 11 10 10 10 9 9 9 8 7 5 4 4 3 3 3 3 2 3 3 4 4 4 5 5 6 6 6 6 6 6 7 6 6 7 7 7 6 6 5 6 6 6 6 7 6 7
15 17 17 18 20 19 19 19 17 16 16 15 15 15 14 14 12 12 10 10 10 10 9 9 8 7 5 4 4 4 4 3 3 4 4 4 5 5 5 5 6 6 6 6 6 6 6 6 6 6 7 7 7 7 6 6 6 7 6 6 6 6 7
17 18 18 18 17 18 18 18 18 17 16 16 16 16 15 15 13 11 10 10 10 10 10 9 8 7 6 5 5 5 4 4 4 4 4 4 5 4 5 6 5 6 5 5 5 5 5 6 6 6 7 6 7 6 6 6 7 7 7 7 6 7 7
15 16 16 17 18 17 18 18 17 16 17 17 16 15 15 15 13 11 10 10 10 11 10 9 7 7 5 5 4 4 4 4 4 4 4 4 4 5 6 6 6 6 5 5 5 5 6 6 6 6 6 7 7 6 6 6 6 6 6 6 7 7 7
13 15 15 16 17 18 17 18 19 19 18 18 17 16 15 16 13 13 12 11 10 10 9 9 8 7 7 6 5 5 4 4 4 4 4 5 5 5 5 6 6 6 6 6 6 6 6 6 7 7 8 7 7 7 7 7 7 7 6 6 6 6 7
11 14 15 16 16 16 17 18 19 18 18 16 16 15 14 15 14 13 12 12 12 11 10 10 9 8 6 6 6 6 5 5 5 5 5 5 5 6 6 6 6 6 6 6 7 7 7 7 7 8 7 7 7 7 7 7 7 6 6 5 6 6 7
11 12 15 16 16 16 17 19 18 18 16 15 16 16 16 14 13 13 13 12 12 11 10 10 9 8 7 6 5 6 5 6 5 5 5 5 5 6 6 6 7 7 7 7 7 7 7 7 7 7 8 8 8 7 7 7 7 6 6 6 7 7 6
11 12 14 15 14 16 17 17 17 17 16 16 16 15 15 13 13 12 13 12 11 10 11 10 11 10 8 6 6 6 5 5 5 5 6 6 6 7 7 8 7 5 6 7 7 6 6 7 8 8 8 8 8 8 7 7 7 6 6 7 8 7 7
10 12 13 14 16 15 14 15 15 14 16 15 15 14 14 12 11 11 11 10 10 10 10 8 5 8 9 7 6 6 6 5 5 6 6 7 6 7 7 7 8 8 6 6 7 7 7 7 7 7 8 9 9 8 8 7 7 7 7 8 8 8 8
9 12 12 15 15 15 16 16 16 14 15 14 14 14 12 12 11 10 9 8 8 8 9 8 6 5 7 7 7 7 6 6 6 6 7 7 6 7 8 8 8 8 8 8 9 9 7 7 6 6 8 9 9 9 8 8 8 9 9 8 7 9 9
9 11 13 14 15 16 19 17 15 15 16 14 15 14 13 11 11 10 9 9 7 7 5 5 6 7 6 7 7 5 6 6 6 6 6 6 6 7 7 7 7 8 9 8 9 9 9 9 7 5 8 9 9 8 8 9 10 9 9 9 9 9 9
9 10 11 14 15 15 14 15 18 18 17 16 16 15 13 13 12 10 8 8 9 6 5 5 4 4 4 5 4 3 4 5 5 5 6 5 5 5 6 7 9 10 10 9 10 10 10 10 9 7 7 9 8 8 9 8 10 9 8 8 9 9 9
11 12 11 11 13 15 16 16 16 16 17 17 16 15 13 12 12 11 11 10 8 7 7 6 6 6 6 5 4 4 5 5 5 5 5 5 5 6 6 7 8 8 8 8 9 10 10 11 10 8 8 9 9 8 9 9 9 8 7 8 9 9 9
12 13 13 15 15 15 16 17 16 17 17 17 16 17 15 13 12 11 10 9 8 8 8 6 7 7 6 6 5 5 5 4 4 4 5 6 6 6 6 7 8 8 9 8 8 8 10 10 10 9 10 9 9 9 8 8 8 6 5 7 8 8 10
12 13 14 14 15 16 16 16 17 18 18 17 17 17 15 13 12 10 8 10 10 9 7 7 7 7 7 6 6 6 5 5 5 5 6 6 6 6 7 7 8 8 8 8 9 9 9 9 9 10 10 10 9 8 8 7 4 5 6 7 8 9 8
12 12 13 14 15 16 17 17 18 18 19 18 18 18 15 13 12 10 15 13 12 10 8 8 8 8 7 7 6 6 6 6 6 6 7 7 6 6 6 7 7 8 8 8 9 9 8 8 9 10 9 10 9 9 8 6 2 9 10 11 10 7 8
10 11 12 14 15 16 17 18 19 20 20 19 18 18 15 14 14 14 13 12 11 11 10 9 8 8 8 8 7 7 7 7 7 7 7 7 7 6 6 7 8 8 8 8 9 8 7 8 9 9 10 9 9 9 9 9 4 11 10 11 10 8 7
9 9 10 12 13 15 16 17 17 18 18 18 18 17 17 15 14 14 13 11 10 9 9 10 9 9 9 8 8 8 8 8 8 8 7 7 7 6 6 7 8 8 8 8 8 7 8 8 9 8 8 8 9 9 9 9 5 10 10 11 11 10 9
8 8 9 10 12 13 13 13 13 15 18 18 18 18 16 15 14 12 12 11 10 10 8 9 9 9 9 8 8 9 9 8 8 8 8 7 7 7 7 7 7 7 7 7 8 7 8 8 9 9 8 8 8 8 9 9 5 10 9 10 11 10 8
7 8 9 9 11 12 12 13 13 15 16 16 17 15 14 13 12 11 11 11 11 10 9 9 9 9 9 9 9 9 9 9 9 8 8 8 8 8 8 7 7 7 7 7 8 8 7 7 8 8 8 8 8 8 8 8 5 10 10 10 11 10 8
8 9 9 9 10 10 11 12 13 14 15 14 14 14 13 13 12 12 12 11 11 10 10 10 9 10 9 10 10 10 10 10 9 8 8 8 8 8 8 8 7 7 6 7 7 7 7 8 8 8 8 8 8 9 9 8 8 9 10 10 10 7 6
8 9 9 9 10 11 11 12 13 14 13 13 13 13 13 12 12 11 11 12 11 11 11 11 10 10 11 11 11 11 10 10 9 8 8 8 8 8 8 8 7 7 7 7 7 7 7 8 8 7 8 9 8 7 8 10 5 9 9 9 7 5 6
7 9 9 9 10 10 11 11 11 12 13 13 13 12 11 11 10 10 10 11 11 12 11 11 11 11 11 11 11 11 10 9 9 9 9 8 9 9 9 8 7 7 6 7 7 8 7 7 7 7 7 8 10 8 9 10 11 4 8 8 9 6 6
9 10 10 10 11 12 12 11 11 12 12 12 12 11 10 10 10 10 10 11 12 12 12 12 12 12 12 11 11 10 10 9 9 9 9 9 9 9 9 8 7 7 6 7 7 7 7 8 7 7 7 8 10 7 7 7 5 5 2 3 3 4 4
10 11 11 11 11 11 11 11 11 11 11 12 11 11 10 9 9 10 10 11 12 12 12 12 12 11 10 10 10 10 9 8 9 9 9 9 9 8 8 7 8 9 8 8 7 7 7 6 7 8 8 5 7 9 10 6 3 4 6 6 5 4 3
11 11 12 13 12 13 11 11 11 11 11 9 9 8 8 8 8 9 9 10 10 12 12 11 11 10 10 10 11 10 10 9 9 10 10 9 8 8 9 8 8 8 8 8 7 7 6 6 7 8 9 8 7 7 6 7 6 8 8 7 5 3 1
12 12 12 11 13 11 10 10 10 10 10 7 7 7 7 7 8 8 9 10 11 12 11 11 10 10 10 11 11 11 10 11 9 10 9 9 9 9 9 8 8 7 8 8 7 6 6 6 7 8 8 8 5 5 8 10 4 4 6 7 5 3 3
12 13 13 13 12 10 10 9 9 9 9 8 8 6 6 7 8 8 8 10 11 10 10 10 10 11 11 12 12 11 11 10 10 9 8 8 9 9 9 8 8 8 7 8 8 7 8 8 7 8 8 7 6 8 8 6 4 6 5 6 3 4 4
12 12 12 12 11 10 10 8 7 8 8 7 6 7 7 7 7 7 8 9 8 9 9 10 11 11 12 12 12 11 10 10 10 10 8 8 8 9 9 8 7 6 6 8 9 7 7 8 7 6 7 9 8 7 4 1 2 1 4 2 4 5 7
13 12 12 11 12 10 8 8 7 5 4 3 3 4 3 4 6 8 10 9 8 8 9 10 10 10 10 10 10 10 9 10 9 9 9 9 8 9 8 9 9 7 5 4 7 9 8 7 7 6 6 8 8 6 5 3 5 3 1 2 3 5 9
10 10 10 9 9 8 6 6 6 5 5 5 4 4 4 4 5 7 8 7 7 8 8 8 8 9 10 8 7 9 10 10 10 9 9 9 7 8 8 9 9 7 5 4 8 9 7 6 4 7 6 7 7 8 7 6 5 5 1 2 8 9 8
9 9 9 9 8 7 5 5 4 4 4 4 4 4 5 5 5 5 5 6 7 8 7 7 8 9 9 9 10 9 9 10 7 8 8 7 8 9 11 8 8 5 4 4 9 9 5 7 7 5 7 5 8 9 7 6 5 5 6 7 7 8 9
10 10 9 9 8 6 6 5 4 4 3 3 2 1 3 5 5 7 7 7 9 9 6 7 8 9 9 9 7 6 6 7 12 11 7 8 9 11 7 3 1 3 2 8 11 10 7 7 6 5 5 7 7 6 5 7 6 6 8 8 8 8 8
10 11 10 9 8 6 6 5 6 5 4 4 2 1 1 3 5 8 9 7 7 6 7 7 8 8 7 6 5 7 8 9 7 5 6 7 8 2 4 2 2 2 4 2 2 3 2 3 4 6 5 5 5 3 4 4 4 6 6 5 5 6 7
10 10 10 9 8 8 8 7 6 4 3 3 2 1 1 2 3 4 7 8 6 4 5 5 5 7 8 10 10 10 11 9 9 9 7 6 6 4 6 8 10 9 0 5 5 10 11 9 4 5 5 4 4 5 3 4 5 8 10 9 9 9 8
10 9 8 8 8 7 6 6 5 4 4 3 2 1 0 2 3 2 4 4 4 3 4 5 6 7 9 9 10 7 8 5 5 5 8 9 4 8 7 5 8 15 16 13 9 10 12 12 11 12 11 6 2 7 12 10 5 7 8 10 10 9 10
9 8 7 6 7 6 6 6 5 5 4 3 1 2 1 2 2 2 5 2 2 4 5 6 6 7 8 9 8 0 6 8 11 8 7 7 4 7 6 6 5 5 10 10 9 9 10 11 10 10 10 11 11 5 4 7 7 8 10 10 10 10 9
Wind_Direction
198 194 181 180 190 194 195 190 181 171 170 170 171 171 173 174 174 171 179 181 186 186 186 196 200 199 204 205 192 201 218 262 262 288 290 296 303 298 299 297 300 300 301 302 309 313 313 310 311 315 314 318 308 309 302 291 291 295 311 307 301 299 295
197 202 189 183 186 192 196 192 182 172 170 172 172 171 174 174 175 178 180 181 186 191 189 196 200 200 210 204 203 212 243 249 259 269 282 278 263 275 281 291 295 295 291 290 295 300 300 302 307 316 314 311 310 308 308 304 303 304 307 305 307 305 304
190 208 196 185 183 187 196 192 184 176 171 172 174 172 175 173 178 179 179 180 186 191 189 198 199 207 204 209 212 224 230 241 258 258 264 274 297 300 295 293 292 291 304 305 290 283 289 299 305 309 310 307 308 307 305 306 301 301 299 298 296 303 298
193 203 196 187 182 174 189 196 186 177 173 174 174 174 170 172 176 179 179 182 186 191 193 197 199 206 202 208 217 227 230 236 241 263 269 276 279 279 287 288 283 288 291 302 304 298 297 297 300 302 306 303 300 305 307 308 310 312 307 309 305 307 298
197 202 197 186 183 177 191 193 182 176 174 174 174 172 168 169 173 177 181 185 190 192 195 196 203 203 205 209 218 218 231 232 238 240 255 276 281 278 276 279 291 296 305 299 293 292 294 298 299 301 303 301 297 293 299 303 307 305 305 304 302 305 307
200 199 198 190 182 181 191 199 183 177 174 175 171 172 170 171 176 180 181 184 189 191 193 199 201 203 204 205 218 223 217 233 235 238 253 252 260 273 281 287 289 295 297 303 308 306 306 297 302 306 302 299 303 299 302 306 305 311 308 301 293 300 308
205 198 198 192 183 182 185 191 182 177 175 174 168 172 176 177 181 183 180 182 190 190 194 198 201 202 206 212 212 219 228 236 229 238 244 248 255 264 270 277 281 283 292 301 291 293 292 297 302 302 296 299 301 303 302 297 300 304 307 298 296 298 301
206 198 197 192 185 185 192 190 179 176 175 170 169 176 183 181 182 184 183 181 189 194 198 204 192 205 205 207 218 220 227 229 235 239 237 250 261 263 264 271 272 265 263 273 286 291 302 303 303 297 300 297 299 301 297 295 294 300 303 299 296 292 299
199 199 197 190 181 183 195 198 180 173 172 172 172 179 185 181 184 183 184 185 182 195 198 207 197 192 194 205 212 220 224 235 234 228 238 249 258 258 256 263 277 294 276 270 277 282 290 295 294 294 292 294 291 293 291 286 284 290 291 295 290 285 294
191 190 197 193 186 187 198 193 177 167 172 172 172 179 183 180 184 182 184 187 186 194 199 214 204 170 180 198 213 220 225 226 227 238 253 254 249 257 264 271 262 256 285 304 299 292 287 281 282 287 292 291 287 282 283 280 282 280 287 285 280 281 283
188 188 194 191 185 191 184 185 176 168 172 171 173 176 175 176 180 176 181 188 197 201 196 192 199 202 175 194 206 207 215 225 231 233 237 248 260 270 274 290 315 330 313 286 272 279 285 280 275 287 292 287 287 286 283 283 285 283 282 276 277 280 285
192 191 194 194 190 184 183 180 172 169 173 172 173 172 168 169 174 174 176 188 208 204 199 182 192 194 194 207 208 205 214 221 237 250 259 271 282 284 293 298 285 270 266 282 308 312 300 295 293 302 297 294 288 299 301 290 283 277 280 283 285 285 285
189 194 197 198 192 188 181 175 176 175 172 171 170 166 165 167 174 176 172 194 202 198 191 182 189 186 196 217 232 208 219 230 234 246 257 258 263 273 280 287 299 311 317 311 299 299 294 294 299 296 289 286 281 273 273 277 279 281 282 281 278 274 281
188 188 191 193 193 190 188 181 176 172 170 170 166 163 162 169 169 176 174 198 197 195 194 180 184 188 195 213 220 221 227 238 244 245 251 261 271 273 281 290 294 293 293 293 289 289 295 299 298 301 300 302 299 293 287 282 281 280 280 277 271 277 283
196 195 190 191 192 193 188 184 176 174 175 173 167 166 164 168 172 177 182 185 197 200 194 178 174 187 197 197 206 211 224 235 239 241 248 251 251 264 273 281 283 280 279 282 288 293 298 297 301 307 300 290 287 287 281 271 269 280 295 287 286 290 287
204 200 194 194 194 192 191 185 177 179 178 174 171 167 166 169 174 167 170 197 196 201 191 177 179 186 196 202 202 206 214 218 223 234 245 250 255 260 271 274 282 288 288 292 295 295 296 305 299 287 283 287 291 289 281 278 303 32 306 301 281 287 290
211 208 199 196 192 192 190 184 182 182 182 176 171 168 165 168 150 166 200 196 195 189 191 181 181 190 196 202 204 206 207 212 218 229 236 243 248 253 262 275 278 278 284 290 293 296 295 286 288 292 294 294 293 288 287 289 237 178 220 227 237 256 277
223 214 207 197 192 191 190 190 188 188 185 176 170 167 166 161 167 187 199 196 193 189 185 187 184 193 197 200 201 203 207 212 221 224 234 238 246 252 259 272 278 278 280 286 289 291 293 294 296 294 288 288 291 293 290 289 165 186 206 220 215 223 256
242 222 212 198 194 194 195 195 193 190 184 174 171 169 168 166 179 187 193 191 191 191 182 184 189 192 199 199 201 202 203 213 219 225 230 235 241 249 259 263 271 272 275 284 292 296 293 289 283 285 291 291 292 289 286 285 195 190 202 215 217 217 233
237 223 207 200 195 194 192 194 193 191 183 177 171 169 169 173 183 184 184 187 187 190 187 185 188 195 199 201 203 203 206 210 219 226 231 233 238 245 254 264 265 271 279 286 284 282 288 294 291 293 292 289 285 283 283 285 216 195 201 217 217 221 223
212 209 199 189 188 189 186 189 185 185 180 177 173 169 171 175 181 181 182 186 188 187 189 188 195 199 200 202 203 207 210 213 217 227 231 234 239 245 253 255 259 267 277 282 290 291 292 299 295 285 288 293 296 296 299 296 161 189 203 214 218 217 221
196 193 190 186 178 179 176 184 181 177 177 174 171 172 177 179 184 188 185 189 191 186 189 189 199 205 205 206 206 209 211 214 218 225 232 239 243 248 247 248 254 262 267 274 277 286 291 283 286 288 288 293 294 294 297 300 168 201 203 214 218 200 233
182 182 175 171 171 174 174 177 175 173 169 170 173 177 183 182 187 195 192 190 196 190 193 195 199 209 207 209 210 212 211 213 218 223 232 236 242 244 243 243 251 256 254 262 273 276 281 289 289 295 289 290 300 302 301 292 238 199 208 212 198 191 254
155 156 156 160 157 160 166 169 167 163 170 169 177 182 185 187 187 192 200 200 196 197 198 202 206 209 210 211 214 214 214 214 215 224 232 236 241 240 241 243 243 250 251 264 279 280 283 288 283 280 293 298 295 338 329 317 325 228 204 202 189 227 274
153 145 152 153 157 155 160 162 165 162 170 171 179 183 188 194 197 197 202 211 212 206 204 206 212 212 210 211 214 216 218 216 218 227 237 236 236 240 246 244 246 250 256 266 260 266 272 269 282 295 300 321 326 320 305 304 341 282 204 174 167 228 269
138 141 146 148 150 148 153 156 162 169 171 178 182 183 191 196 208 218 210 213 217 221 213 213 216 215 212 213 214 216 219 222 223 227 236 241 240 243 245 244 244 244 244 244 262 282 292 301 299 298 296 307 294 297 299 306 338 250 167 151 169 230 297
143 148 148 152 145 147 150 159 165 173 177 177 178 181 193 197 208 218 218 221 222 226 225 218 215 214 210 213 217 215 214 220 224 229 230 233 243 244 240 236 241 247 251 260 265 270 279 288 288 291 289 296 297 289 306 315 265 168 152 116 106 120 268
147 150 151 135 134 150 151 160 162 172 174 165 174 188 194 199 210 218 223 225 231 231 228 224 218 213 210 215 216 218 215 216 216 228 228 229 231 235 240 241 249 258 261 262 264 260 270 280 279 281 293 290 280 315 289 238 224 117 125 121 113 128 188
153 157 143 137 149 151 156 153 165 175 182 182 187 186 196 207 212 219 224 230 234 236 233 224 221 215 211 215 214 215 219 218 216 220 222 224 227 234 237 239 240 241 257 261 255 261 256 256 266 273 281 287 290 284 276 359 58 19 110 129 131 186 236
156 149 145 158 152 155 160 146 173 176 196 201 193 192 194 212 217 225 235 241 243 242 238 231 223 216 214 213 214 215 220 220 216 217 224 227 228 231 235 236 237 247 246 245 241 237 244 247 251 264 273 292 306 284 306 192 160 52 61 147 170 239 244
158 154 160 161 158 156 163 161 159 165 153 130 114 126 161 194 230 233 241 245 249 248 242 235 230 221 220 220 222 226 227 221 219 221 220 229 233 239 235 239 230 237 240 267 277 253 247 253 247 265 306 294 277 287 277 315 147 161 122 215 314 301 271
150 158 160 136 117 134 160 150 162 161 164 153 164 182 196 226 240 251 254 261 256 254 250 241 236 227 229 224 225 232 230 227 220 225 230 234 243 251 238 242 241 218 217 238 249 245 247 263 269 278 278 276 287 298 319 315 338 89 72 348 356 333 346
138 139 143 131 126 130 142 151 165 168 187 188 179 209 210 207 222 248 264 260 263 255 246 244 232 233 233 227 231 223 223 232 230 235 228 229 239 246 243 233 237 225 191 215 258 255 231 236 259 242 237 270 299 309 310 317 334 42 24 12 351 342 331
134 127 123 119 122 129 129 131 136 106 88 82 81 24 323 312 288 265 250 260 273 274 255 229 237 240 234 235 233 228 228 229 235 238 229 223 231 246 244 260 185 127 231 255 250 234 233 255 268 294 304 294 297 316 325 321 328 34 12 355 343 331 328
131 127 127 123 119 119 104 94 91 93 94 105 98 80 303 282 289 302 303 280 265 280 270 249 233 238 251 252 223 233 232 232 222 224 237 246 253 62 47 7 306 147 149 50 353 352 293 262 258 275 289 301 320 317 311 320 351 29 10 335 319 300 312
130 125 120 117 116 107 105 103 105 107 108 112 104 120 275 288 294 300 295 302 289 256 257 248 243 247 237 243 236 230 231 215 226 219 221 228 246 143 101 68 46 9 258 127 61 60 50 58 44 22 346 333 37 36 356 351 19 6 340 325 311 298 276
129 124 124 125 117 114 103 102 114 124 123 118 106 159 194 273 288 286 303 327 338 322 276 255 257 260 266 267 263 301 309 281 183 254 253 244 183 177 176 147 61 38 39 55 74 72 77 82 81 62 49 23 61 83 71 69 44 353 325 318 308 299 289
133 127 128 127 116 121 133 149 142 134 124 121 153 145 253 303 303 37 309 329 321 315 294 273 267 266 266 267 283 229 216 229 259 262 279 275 211 161 221 187 134 95 48 37 44 56 69 76 74 70 66 55 42 30 118 63 21 343 324 313 311 303 295